SCP
0 0 0 0 0 0 0 0 0 0 0 0 0 0 0 0 0 0 0 0 0 0 0 0 0 0 0 0 0 0 0 0 0 0 0 0 0 0 0 0 0 0 0 0
0 0 0 0 0 0 0 0 0 0 0 0 0 0 0 0 0 0 0 0 0 0 0 0 0 0 0 0 0 0 0 0 0 0 0 0 0 0 0 0 0 0 0 0
0 0 0 0 0 0 0 0 0 0 0 0 0 0 0 0 0 0 0 0 0 0 0 0 0 0 0 0 0 0 0 0 0 0 0 0 0 0 0 0 0 0 0 0
0 0 0 0 0 0 0 0 0 0 0 0 0 0 0 0 0 0 0 0 0 0 0 0 0 0 0 0 0 0 0 0 0 0 0 0 0 0 0 0 0 0 0 0
0 0 0 0 0 0 0 0 0 0 0 0 0 0 0 0 0 0 0 0 0 0 0 0 0 0 0 0 0 0 0 0 0 0 0 0 0 0 0 0 0 0 0 0
0 0 0 0 0 0 0 0 0 0 0 0 0 0 0 0 0 0 0 0 0 0 0 0 0 0 0 0 0 0 0 0 0 0 0 0 0 0 0 0 0 0 0 0
0 0 0 0 0 0 0 0 0 0 0 0 0 0 0 0 0 0 0 0 0 0 0 0 0 0 0 0 0 0 0 0 0 0 0 0 0 0 0 0 0 0 0 0
0 0 0 0 0 0 0 0 0 0 0 0 0 0 0 0 0 0 0 0 0 0 0 0 0 0 0 0 0 0 0 0 0 0 0 0 0 0 0 0 0 0 0 0
0 0 0 0 0 0 0 0 0 0 0 0 0 0 0 0 0 0 0 0 0 0 0 0 0 0 0 0 0 0 0 0 0 0 0 0 0 0 0 0 0 0 0 0
0 0 0 0 0 0 0 0 0 0 0 0 0 0 0 0 0 0 0 0 0 0 0 0 0 0 0 0 0 0 0 0 0 0 0 0 0 0 0 0 0 0 0 0
0 0 0 0 0 0 0 0 0 0 0 0 0 0 0 0 0 0 0 0 0 0 0 0 0 0 0 0 0 0 0 0 0 0 0 0 0 0 0 0 0 0 0 0
0 0 0 0 0 0 0 0 0 0 0 0 0 0 0 0 0 0 0 0 0 0 0 0 0 0 0 0 0 0 0 0 0 0 0 0 0 0 0 0 0 0 0 0
0 0 0 0 0 0 0 0 0 0 0 0 0 0 0 0 0 0 0 0 0 0 0 0 0 0 0 0 0 0 0 0 0 0 0 0 0 0 0 0 0 0 0 0
0 0 0 0 0 0 0 0 0 0 0 0 0 0 0 0 0 0 0 0 0 0 0 0 0 0 0 0 0 0 0 0 0 0 0 0 0 0 0 0 0 0 0 0
0 0 0 0 0 0 0 0 0 0 0 0 0 0 0 0 0 0 0 0 0 0 0 0 0 0 0 0 0 0 0 0 0 0 0 0 0 0 0 0 0 0 0 0
0 0 0 0 0 0 0 0 0 0 0 0 0 0 0 0 0 0 0 0 0 0 0 0 0 0 0 0 0 0 0 0 -0 0 0 0 0 0 0 0 0 0 0 0
0 0 0 0 0 0 0 0 0 0 0 0 0 0 0 0 0 0 0 0 0 0 0 0 0 0 0 0 0 0 0 0 0 0 0 0 0 0 0 0 0 0 0 0
0 0 0 0 0 0 0 0 0 0 0 0 0 0 0 0 0 0 0 0 0 0 0 0 0 -0 -0 -0 -0 0 0 0 0 0 0 0 0 0 0 0 0 0 0 0
0 0 0 0 0 0 0 0 0 0 0 0 0 0 0 0 0 0 0 0 0 0 0 0 0 -0 0 0 0 0 0 0 0 0 0 0 0 0 0 0 0 0 0 0
0 0 0 0 0 0 0 0 0 0 0 0 0 0 0 0 0 0 0 0 0 0 0 0 0 0 0 0 0 0 0 0 0 0 0 0 0 0 0 0 0 0 0 0
0 0 0 0 0 0 0 0 0 0 0 0 0 0 0 0 0 0 0 0 0 0 0 0 0 0 0 0 0 0 0 0 0 0 0 0 0 0 0 0 0 0 0 0
0 0 0 0 0 0 0 0 0 0 0 0 0 0 0 0 0 0 0 0 0 0 0 0 0 0 0 0 0 0 0 0 0 0 0 0 0 0 0 0 0 0 0 0
0 0 0 0 0 0 0 0 0 0 0 0 0 0 0 0 0 0 0 0 0 0 0 0 0 0 0 0 0 0 0 0 0 0 0 0 0 0 0 0 0 0 0 0
0 0 0 0 0 0 0 0 0 0 0 0 0 0 0 0 0 0 0 0 0 0 0 0 0 0 0 0 0 0 0 0 0 0 0 0 0 0 0 0 0 0 0 0
0 0 0 0 0 0 0 0 0 0 0 0 0 0 0 0 0 0 0 0 0 0 0 -0 -0 -0 0 0 0 0 0 0 0 0 0 0 0 0 0 0 0 0 0 0
0 0 0 0 0 0 0 0 0 0 0 0 0 0 0 0 0 0 0 0 0 0 0 -0 -0 -0 -0 -0 -0 0 0 0 0 0 0 0 0 0 0 0 0 0 0 0
Wind_Speed
1 6 8 8 7 9 9 12 16 16 5 7 16 24 28 24 18 20 20 19 19 20 18 15 17 18 19 19 20 21 21 21 18 15 15 15 15 14 13 13 16 17 17 17
5 9 8 4 2 5 8 12 15 12 1 7 15 24 26 20 15 14 16 16 16 16 14 14 14 16 19 21 21 22 22 22 22 17 15 13 13 12 14 13 16 18 19 18
10 4 2 3 4 6 9 10 11 11 9 7 10 15 11 9 6 8 9 10 11 12 12 11 13 16 17 20 22 19 22 22 22 20 13 11 11 10 12 16 15 18 20 20
8 4 3 6 6 6 9 4 7 8 9 7 5 11 13 9 10 8 11 10 10 8 7 8 10 13 17 18 17 19 20 21 20 20 18 20 17 17 17 14 14 17 20 21
5 2 4 6 5 5 5 2 4 5 6 8 4 7 11 7 9 15 15 15 13 11 9 7 8 11 13 14 15 16 18 19 20 21 21 21 20 18 13 14 17 18 18 21
7 1 3 3 1 2 2 4 3 3 4 6 2 5 9 5 7 12 14 15 15 14 12 10 7 7 9 11 13 15 17 19 19 21 22 24 24 21 18 18 16 15 14 15
3 3 2 2 3 2 4 6 5 4 4 3 2 6 12 10 7 8 11 13 14 14 14 14 12 8 7 10 13 15 17 19 20 21 23 24 24 23 23 20 18 16 14 15
5 2 3 3 3 3 1 5 5 6 7 6 3 9 10 11 9 8 7 9 12 16 16 16 14 11 9 8 10 14 17 18 19 20 21 21 22 17 16 20 17 17 15 15
4 4 2 0 1 3 3 3 3 6 7 8 7 7 13 11 5 4 10 14 17 18 18 17 15 13 11 9 8 11 14 15 16 18 19 19 20 20 19 18 18 16 16 14
3 6 2 1 2 1 3 1 4 5 7 8 8 8 8 8 12 14 15 17 20 19 17 17 14 13 12 10 8 8 10 13 13 15 16 14 17 19 18 17 19 18 17 17
4 6 3 3 6 5 5 5 6 6 6 8 10 8 6 11 13 12 14 17 18 17 15 14 13 13 12 10 8 7 7 9 10 12 14 15 16 16 17 17 19 18 17 18
3 5 6 6 1 1 5 6 7 7 8 8 12 13 7 9 8 10 15 16 14 13 13 13 13 13 13 12 11 8 7 7 8 10 12 14 15 15 16 18 18 17 18 17
5 5 7 5 4 4 6 6 7 7 8 12 15 16 1 7 13 15 14 12 10 11 13 14 14 14 14 13 12 11 9 8 7 8 10 12 13 15 16 17 16 16 17 17
5 7 11 13 14 11 10 9 9 11 13 17 22 27 25 24 19 14 11 10 9 11 13 15 16 16 15 14 13 12 11 9 7 8 10 12 13 14 15 15 15 15 16 17
5 9 12 17 17 16 18 20 19 21 22 24 29 29 28 20 13 9 9 10 10 13 16 17 17 17 17 16 15 14 12 10 8 9 10 12 12 12 12 13 14 14 15 16
5 7 8 15 17 18 22 25 26 26 25 27 29 28 16 6 7 10 12 12 12 15 17 18 18 18 17 17 16 15 14 12 10 10 11 10 10 11 12 12 13 14 15 16
6 7 11 15 11 12 17 17 18 15 15 17 18 13 7 8 11 14 15 13 13 17 18 19 18 17 17 16 16 15 15 14 12 11 11 10 10 11 11 12 13 14 15 16
10 8 8 9 8 13 9 3 7 12 15 15 14 10 9 11 13 14 13 12 16 19 19 19 17 17 17 16 15 15 15 14 13 12 11 10 9 11 11 12 13 14 13 14
10 9 7 5 8 14 11 7 4 6 10 5 2 6 11 13 15 13 10 13 18 19 18 17 16 17 16 16 15 15 15 14 13 13 12 10 9 10 11 12 13 13 12 13
4 7 7 6 7 10 6 2 0 4 7 3 4 12 16 17 17 14 15 19 19 18 15 15 15 16 15 15 14 14 15 15 14 14 13 13 12 11 12 13 13 11 11 13
5 6 8 9 10 12 7 0 2 6 5 3 12 16 17 17 16 18 19 17 16 15 15 15 15 14 14 15 14 14 15 15 14 14 14 14 13 12 12 12 11 10 10 11
7 6 8 7 10 12 3 4 5 9 11 14 17 17 18 18 19 18 16 15 14 14 15 14 14 15 15 15 14 15 16 15 15 15 15 14 14 11 9 11 10 10 10 11
9 8 6 10 11 8 3 7 10 12 17 18 17 18 18 18 17 16 14 13 13 14 14 13 14 16 15 14 14 16 16 16 15 15 15 14 14 12 10 10 10 9 9 9
7 7 10 14 16 18 17 17 17 16 17 18 18 17 16 15 14 12 11 12 13 13 14 14 15 16 17 16 16 16 16 15 15 15 15 14 13 12 10 8 8 8 8 9
10 7 13 20 21 20 15 13 15 17 18 18 17 14 11 10 10 11 11 12 13 13 14 14 15 16 18 17 17 16 16 15 15 15 14 13 12 11 10 9 8 9 10 10
15 18 18 18 17 18 20 19 20 19 17 15 13 11 8 7 10 11 12 12 13 14 15 15 16 18 18 18 18 17 16 15 15 13 13 11 10 10 9 9 9 12 15 17
Wind_Direction
258 245 256 277 270 282 288 282 287 294 303 259 272 281 287 291 283 267 265 263 258 252 248 233 217 210 208 207 206 204 203 204 201 200 204 207 212 213 214 215 213 209 207 204
245 254 280 293 244 243 256 275 287 298 254 260 290 288 287 291 288 285 283 281 276 270 258 237 221 210 208 207 206 206 206 203 203 204 204 209 213 217 217 215 217 214 210 207
254 295 97 193 229 249 259 264 289 302 312 251 298 292 290 310 317 307 300 295 293 284 274 253 226 218 213 212 209 208 207 206 205 204 203 205 213 221 217 216 216 215 213 210
259 273 227 246 255 251 279 286 273 285 300 306 337 303 303 328 336 16 18 13 360 340 303 275 246 228 221 220 216 214 212 210 207 203 206 204 207 213 216 214 215 214 213 213
264 235 231 257 274 235 282 354 269 277 281 285 254 264 289 315 353 10 12 15 15 8 350 318 275 246 234 224 218 217 216 214 210 207 210 212 219 224 224 218 218 216 212 213
267 272 254 273 343 237 258 249 214 212 239 254 218 262 288 320 349 346 354 7 12 7 1 349 323 273 245 225 217 215 216 217 212 211 213 216 222 224 224 221 218 216 213 211
270 200 188 208 234 178 236 282 282 260 243 257 127 255 261 283 315 315 322 340 355 360 358 351 341 316 269 233 220 215 216 219 214 214 216 219 224 226 227 226 221 217 215 213
298 277 175 207 256 300 246 276 301 304 298 302 227 248 265 290 305 297 303 331 350 354 349 342 337 325 302 263 233 221 220 222 216 216 220 223 225 227 231 229 225 221 220 218
271 286 113 119 262 254 230 225 323 286 280 274 257 261 284 279 277 331 351 356 354 347 342 339 336 332 324 303 266 237 230 229 223 221 222 223 224 226 230 231 230 229 226 220
266 277 247 132 172 157 296 236 204 248 279 279 267 258 258 288 314 335 347 349 345 343 342 341 340 338 334 326 307 272 246 239 234 228 226 227 227 228 230 231 231 229 228 223
230 261 250 217 224 225 181 196 225 249 263 279 287 270 249 278 312 334 339 340 342 345 345 344 344 344 343 342 334 313 280 260 247 238 234 233 234 233 232 233 234 232 230 225
207 256 268 257 103 307 244 242 221 251 261 249 278 281 270 280 314 328 332 340 346 349 349 350 350 351 353 351 346 335 310 281 263 251 243 240 238 235 234 235 236 234 232 227
169 232 279 256 195 185 225 226 228 251 275 266 267 275 254 275 301 325 339 343 349 355 357 355 353 351 349 345 341 337 324 302 282 262 252 248 244 240 240 240 238 234 232 229
200 235 247 267 285 295 266 249 231 235 258 267 263 276 288 299 320 340 346 344 348 354 354 351 346 342 339 335 333 330 325 316 296 271 258 255 252 248 247 246 241 237 232 229
205 251 254 264 277 280 275 272 262 252 257 267 276 283 292 315 338 344 340 338 338 343 343 341 336 333 331 329 328 327 321 316 303 281 267 263 261 257 253 248 243 238 233 230
223 259 270 270 271 275 275 268 264 263 262 263 271 279 300 348 354 342 334 330 328 332 333 331 327 325 324 323 323 321 318 316 306 289 279 275 269 262 256 252 246 240 235 231
226 250 278 282 298 293 269 259 255 249 250 257 269 294 360 340 340 332 324 318 322 325 324 321 319 317 316 316 316 313 312 311 304 294 288 284 276 267 260 254 248 241 236 231
247 247 267 286 291 249 257 305 268 265 266 270 275 296 321 325 320 311 310 316 320 321 318 316 315 314 312 312 311 309 308 306 302 297 293 287 278 272 269 261 252 246 239 233
227 223 238 254 264 274 279 281 258 260 278 287 318 335 328 326 312 308 329 325 317 315 314 313 313 311 310 310 312 311 307 305 303 301 301 296 281 275 272 265 259 251 243 238
178 211 228 225 251 267 284 109 345 273 271 136 340 329 328 327 315 318 328 319 315 315 315 316 314 310 309 313 317 311 307 307 308 309 307 303 295 284 277 271 266 256 245 241
164 190 218 232 246 268 283 44 219 256 325 0 321 321 319 313 305 309 314 313 312 313 315 317 316 313 313 316 316 310 308 309 313 312 307 303 299 291 285 280 271 260 248 242
215 217 217 220 229 251 201 175 231 303 323 314 313 314 312 308 307 308 310 310 313 315 316 319 316 312 313 315 314 308 307 312 313 309 304 303 301 297 287 280 272 259 248 244
228 233 244 223 240 274 235 254 293 308 305 309 311 311 308 305 305 308 308 310 313 314 314 315 313 310 311 314 313 307 308 311 310 307 304 304 303 298 290 280 271 260 245 241
244 247 254 263 263 273 280 285 291 299 305 308 307 307 305 302 305 306 307 308 309 311 313 315 314 311 311 314 313 308 308 309 306 304 305 305 304 301 295 280 266 256 247 241
254 254 255 264 276 284 281 288 298 305 306 304 305 304 303 301 301 305 306 306 308 309 311 312 310 308 308 311 310 309 310 311 307 304 304 304 301 299 296 284 268 259 250 244
236 245 255 268 285 294 298 306 308 304 301 304 304 303 302 299 301 305 304 305 306 307 309 309 307 308 309 310 308 309 310 310 306 304 304 303 302 299 294 290 283 258 253 256